Regional Weather Roundup
Issued by NWS

Home | Current Version | Previous Version | Graphics & Text | Print | Product List | Glossary On
Versions: 1 2 3 4 5 6 7 8 9 10 11 12 13 14 15 16 17 18 19 20 21 22 23 24 25 26 27 28 29 30 31 32 33 34 35 36 37 38 39 40 41 42 43 44 45 46 47 48 49 50
000
ASUS43 KOAX 010502
RWRNE

WEATHER ROUNDUP FOR NEBRASKA
NATIONAL WEATHER SERVICE OMAHA NE
1200 AM CDT MON SEP 01 2014

NOTES: SATELLITE DATA IS BEING USED TO AUGMENT CLOUD COVER ABOVE
       12000 FEET.
       "FAIR" INDICATES FEW OR NO CLOUDS BELOW 12,000 FEET WITH NO
       SIGNIFICANT WEATHER AND/OR OBSTRUCTIONS TO VISIBILITY.

  * THESE STATIONS DO NOT REPORT WEATHER SUCH AS RAIN...SNOW OR FOG.

NEZ001>004-019>022-054>056-010600-
NEBRASKA PANHANDLE

CITY           SKY/WX    TMP DP  RH WIND       PRES   REMARKS
SCOTTSBLUFF    CLEAR     54  49  83 NW6       29.96R
ALLIANCE       CLEAR     50  48  93 W8        29.92S
CHADRON        CLEAR     52  50  93 SW7       29.90S
KIMBALL        CLEAR     51  45  78 NW7       29.97R
SIDNEY         CLEAR     50  45  83 NW6       29.97R
$$

NEZ057>060-069>072-079>082-010600-
SOUTHWEST NEBRASKA

CITY           SKY/WX    TMP DP  RH WIND       PRES   REMARKS
NORTH PLATTE   CLEAR     57  51  80 N3        29.87R
IMPERIAL       MOCLDY    60  50  69 NW13      29.88R
LEXINGTON      CLEAR     60  58  92 SW6       29.82R
MCCOOK         PTCLDY    62  58  86 N10       29.84R
OGALLALA       CLEAR     55  51  85 W6        29.88S
$$

NEZ005>010-023>029-035>040-094-010600-
NORTH CENTRAL NEBRASKA

CITY           SKY/WX    TMP DP  RH WIND       PRES   REMARKS
VALENTINE      PTCLDY    57  54  89 NW8       29.83R
AINSWORTH      PTCLDY    57  54  89 NW7       29.82R
BROKEN BOW     CLEAR     58  52  80 W9        29.80R
O`NEILL        PTCLDY    62  61  97 N6        29.74F
ORD            PTCLDY    62  56  80 CALM      29.71F
THEDFORD       CLEAR     57  55  92 NW8       29.85S
$$

NEZ041-046>049-061>064-073>077-083>087-010600-
SOUTH CENTRAL NEBRASKA

CITY           SKY/WX    TMP DP  RH WIND       PRES   REMARKS
GRAND ISLAND   PTCLDY    63  60  90 NW6       29.77R
AURORA         PTCLDY    61  61 100 CALM      29.75S
HASTINGS       PTCLDY    63  59  87 CALM      29.74F
HEBRON         CLOUDY    67  64  89 CALM      29.74S
HOLDREGE       MOCLDY    63  59  88 CALM      29.79R
KEARNEY *      PTCLDY    63  57  82 NW7       29.80R
$$

NEZ011>018-030>034-042>045-010600-
NORTHEAST NEBRASKA

CITY           SKY/WX    TMP DP  RH WIND       PRES   REMARKS
NORFOLK        MOCLDY    63  61  93 SW3       29.71R
ALBION         PTCLDY    62  58  87 NW3       29.74S
BLAIR          CLOUDY    68  65  92 SW5       29.69R
FREMONT        CLOUDY    66  65  96 W5        29.69S
TEKAMAH        CLOUDY    66  65  96 CALM      29.68R
WAYNE          CLOUDY    64  62  94 CALM      29.71R
$$

NEZ050>053-065>068-078-088>093-010600-
SOUTHEAST NEBRASKA

CITY           SKY/WX    TMP DP  RH WIND       PRES   REMARKS
LINCOLN        CLOUDY    68  66  93 SW6       29.73R
OMAHA EPPLEY   CLOUDY    70  67  90 S7        29.69R
BEATRICE       CLOUDY    68  66  92 S7        29.73R
FALLS CITY     CLOUDY    68  66  93 S14G21    29.78R
NEBRASKA CITY  CLOUDY    67  67 100 S14G20    29.75R
PLATTSMOUTH    CLOUDY    69  67  92 S9        29.72R
$$

NEZ044-045-051>053-067-010600-
OMAHA AREA

CITY           SKY/WX    TMP DP  RH WIND       PRES   REMARKS
OMAHA EPPLEY   CLOUDY    70  67  90 S7        29.69R
BLAIR          CLOUDY    68  65  92 SW5       29.69R
FREMONT        CLOUDY    66  65  96 W5        29.69S
MILLARD        CLOUDY    69  67  92 S3        29.70R
OFFUTT AFB     CLOUDY    69  69 100 S5        29.71R
PLATTSMOUTH    CLOUDY    69  67  92 S9        29.72R
WAHOO          FAIR      66  64  91 CALM      29.70R
$$


USA.gov is the U.S. government's official web portal to all federal, state and local government web resources and services.